GW4222 Weather Reports


Display with metric or nautical units.
time (UTC)temp
F
wind
direction
speed
MPH
gust
MPH
rain 1hr
in
rain 24hr
in
rain mn
in
humidity
%
barometer
mb
20260504081503 34 352 0.0 2.0 0.00 0.01 0.01 94 1007.6
20260504050007 29 313 0.0 0.0 0.00 0.00 0.00 92 1008.1
20260504044513 29 313 0.0 0.0 0.00 0.00 0.00 91 1008.3
20260504043012 29 313 0.0 2.0 0.00 0.00 0.00 91 1008.6
20260504041513 28 313 0.0 0.0 0.00 0.00 0.00 90 1008.7
20260504040019 29 313 0.0 2.0 0.00 0.00 0.00 89 1008.6
20260504034509 29 313 0.0 2.0 0.00 0.00 0.00 88 1008.5
20260504033011 30 313 0.0 0.0 0.00 0.00 0.00 87 1008.5
20260504031508 30 313 0.0 2.0 0.00 0.00 0.00 86 1008.5
20260504030011 31 313 0.0 2.0 0.00 0.00 0.00 86 1008.6
20260504024508 31 313 0.0 1.0 0.00 0.00 0.00 85 1008.6
20260504023011 32 313 0.0 2.0 0.00 0.00 0.00 84 1008.4
20260504021512 33 313 0.0 2.0 0.00 0.00 0.00 83 1008.5
20260504020025 33 313 0.0 2.0 0.00 0.00 0.00 82 1008.7
20260504014520 34 313 0.0 0.0 0.00 0.00 0.00 81 1008.7
20260504013013 35 313 0.0 1.0 0.00 0.00 0.00 78 1008.5
20260504011515 36 313 0.0 2.0 0.00 0.00 0.00 76 1008.4
20260504010018 37 313 0.0 0.0 0.00 0.00 0.00 73 1008.2
20260504004517 39 312 0.0 2.0 0.00 0.00 0.00 71 1008.0
20260504003019 0 0.0 0.0 0.00 0.00 0.00 1007.9
20260504001511 41 312 0.0 2.0 0.00 0.00 0.00 65 1007.7
20260504000018 43 312 0.0 2.0 0.00 0.00 0.00 63 1007.7
20260503234503 44 312 0.0 2.0 0.00 0.00 0.00 61 1007.7
20260503233019 46 312 0.0 2.0 0.00 0.01 0.00 58 1007.5
20260503231508 47 352 1.0 4.0 0.00 0.03 0.00 52 1007.4
20260503230020 48 5 0.0 2.0 0.00 0.04 0.00 54 1007.5
20260503224503 48 228 1.0 9.0 0.00 0.04 0.00 47 1007.5
20260503223004 49 19 3.0 9.0 0.00 0.04 0.00 46 1007.4
20260503221503 49 5 2.0 7.0 0.00 0.04 0.00 45 1007.3
20260503220016 49 22 2.0 10.0 0.00 0.04 0.00 45 1007.3
20260503214534 49 38 3.0 6.0 0.00 0.04 0.00 46 1007.4
20260503213008 49 107 1.0 6.0 0.00 0.04 0.00 47 1007.3
20260503211508 49 287 2.0 7.0 0.00 0.04 0.00 46 1007.4
20260503210006 49 53 5.0 12.0 0.00 0.04 0.00 44 1007.3
20260503204501 48 36 1.0 9.0 0.00 0.04 0.00 48 1007.3
20260503203027 48 53 4.0 10.0 0.00 0.04 0.00 50 1007.3
20260503201517 48 18 2.0 9.0 0.00 0.05 0.00 51 1007.4
20260503200013 48 73 4.0 9.0 0.00 0.05 0.00 48 1007.5
20260503194511 49 360 3.0 15.0 0.00 0.05 0.00 48 1007.5
20260503193009 48 88 3.0 8.0 0.00 0.05 0.00 48 1007.7
20260503191513 48 30 1.0 8.0 0.00 0.05 0.00 48 1007.9
20260503190027 49 9 1.0 8.0 0.00 0.05 0.00 49 1007.8
20260503184520 48 31 4.0 12.0 0.00 0.05 0.00 46 1007.8
20260503183017 48 168 3.0 12.0 0.00 0.05 0.00 45 1007.8
20260503181514 48 338 6.0 12.0 0.00 0.05 0.00 44 1007.8
20260503180011 48 101 4.0 12.0 0.00 0.05 0.00 45 1007.6
20260503174506 47 74 2.0 12.0 0.00 0.05 0.00 46 1007.8
20260503173027 47 280 0.0 8.0 0.00 0.05 0.00 52 1007.9
20260503171522 48 250 2.0 8.0 0.00 0.05 0.00 49 1007.9